User: anonymous   Login
Location: Austin
(30.3000°N, 97.7500°W)
Time: 21:06:13
(UTC-05:00)
Language:

Cosmos 2278 Rocket - Orbit

View from above orbital plane
View from above orbital plane
View from above satellite
View from above satellite

Ground track
Ground track

The orbit data is extracted from the following two-line orbital elements,

1 23088U 94023B   24147.90448885  .00000313  00000-0  18702-3 0  9991
2 23088  71.0011 359.5444 0004710 230.1141 129.9568 14.14847739553899
Epoch (UTC): 26 May 2024 21:42:27
Eccentricity: 0.0004710
inclination: 71.0011°
perigee height: 839 km
apogee height: 846 km
right ascension of ascending node: 359.5444°
argument of perigee: 230.1141°
revolutions per day: 14.14847739
mean anomaly at epoch: 129.9568°
orbit number at epoch: 55389

The dashed part of the orbit path shows where the satellite is in the earth's shadow,  

DLR